Regional Weather Roundup
Issued by NWS Grand Forks, ND

Home | Current Version | Previous Version | Graphics & Text | Print | Product List | Glossary On
Versions: 1 2 3 4 5 6 7 8 9 10 11 12 13 14 15 16 17 18 19 20 21 22 23 24 25 26 27 28 29 30 31 32 33 34 35 36 37 38 39 40 41 42 43 44 45 46 47 48 49 50
000
ASUS43 KFGF 170810
RWRFGF
PRAIRIE TO PINES  WEATHER ROUNDUP
NATIONAL WEATHER SERVICE EASTERN NORTH DAKOTA/GRAND FORKS ND
300 AM CDT WED SEP 17 2014

 **SATELLITE DATA USED TO AUGMENT SKY COVER AT AUTOMATED STATIONS**
 *****  WEATHER ACROSS EASTERN NORTH DAKOTA  *****

CITY           SKY/WX    TMP DP  RH WIND       PRES   REMARKS
GRAND FORKS    CLEAR     46  41  82 CALM      29.90S
GRAND FRKS AFB CLEAR     47  44  87 SW6       29.90S
GRAND FRKS NWS   N/A     48 N/A N/A SW3         N/A
DEVILS LAKE    CLEAR     50  41  71 CALM      29.90F
FARGO          CLEAR     54  47  77 S6        29.90S
WAHPETON ARPT  SUNNY     48  45  87 S6        29.91S
$$

 ***** WEATHER ACROSS CENTRAL AND WESTERN NORTH DAKOTA  *****

CITY           SKY/WX    TMP DP  RH WIND       PRES   REMARKS
BISMARCK       CLEAR     43  42  97 CALM      29.94S
MINOT          CLEAR     48  42  80 SW8       29.91S
JAMESTOWN      CLEAR     43  41  93 CALM      29.91S
MINOT AFB      CLEAR     43  42  96 W7        29.91S
GARRISON         N/A     46  44  93 CALM      29.93S
WILLISTON      CLEAR     42  37  82 CALM      29.93S
DICKINSON      PTCLDY    44  39  82 CALM      29.93S
HETTINGER      PTCLDY    43  41  93 CALM      29.95S
$$

 *****  OTHER AIRPORT OBSERVATIONS IN OUR AREA  *****

CITY           SKY/WX    TMP DP  RH WIND       PRES   REMARKS
WALHALLA       FAIR      55  43  62 NW13G21   29.90R
GRAFTON AIRPOR FAIR      46  39  76 SW6       29.89S
VALLEY CITY AR FAIR      46  46 100 NW6       29.91S
CANDO          FAIR      41  39  93 W3        29.92S
CAVALIER APRT  FAIR      52  41  66 SW3       29.88S
GWINNER        SUNNY     50  50 100 SW8       29.91S
SHEYENNE NWR     N/A     47  46  98 SW3       29.95S
ROLLA          FAIR      45  41  87 SW8       29.92S
 ***** THE ABOVE OBSERVATIONS ARE NON NWS ARE NOT QUALITY
       CONTROLLED AND MAY MIS-REPORT RAIN FOR SNOW...
$$

  *****  WEATHER ACROSS NORTHERN MINNESOTA  *****

CITY           SKY/WX    TMP DP  RH WIND       PRES   REMARKS
FLAG ISLAND    CLOUDY    52  46  82 NE12      29.91R
WARROAD        PTCLDY    52  45  76 NW7       29.92R
ROSEAU         CLEAR     54  45  71 NW7       29.90R
HALLOCK        PTCLDY    45  41  87 S7        29.88S
THF RVR FALLS  CLEAR     50  43  76 S3        29.91S
BAUDETTE       MOCLDY    53  43  68 SW9       29.88R
WASKISH        PTCLDY    50  45  81 CALM      29.90S
CROOKSTON      CLEAR     46  43  87 S3        29.91S
STEPHEN NDAWN    N/A     46  43  87 SW3         N/A
GREENBUSH NDAW   N/A     52  43  71 SW7         N/A
$$
  *****  WEATHER ACROSS CENTRAL AND WEST MINNESOTA  *****

CITY           SKY/WX    TMP DP  RH WIND       PRES   REMARKS
FOSSTON        CLEAR     45  41  87 S3        29.92S
BEMIDJI        CLEAR     47  41  81 CALM      29.92S
PARK RAPIDS    CLEAR     42  39  89 S3        29.93F
ELBOW LAKE     FAIR      52  48  84 SE7       29.92S
WADENA         CLEAR     45  43  93 CALM      29.92F
DETROIT LAKES  CLEAR     52  46  82 SE3       29.93S
MOORHEAD       CLEAR     54  52  94 S5        29.90F
FERGUS FALLS   CLEAR     54  46  76 S7        29.92F
MORRIS MN      CLEAR     48  46  93 SE6       29.92S
STAPLES        CLEAR     43  43 100 CALM      29.93F
$$
  *****  WEATHER ELSEWHERE ACROSS MINNESOTA  *****

CITY           SKY/WX    TMP DP  RH WIND       PRES   REMARKS
DULUTH         CLEAR     50  41  71 W6        29.94F
INTRNTL FALLS  CLOUDY    52  43  71 SW7       29.87R
ELY            MOCLDY    52  43  71 SW3       29.90S
CLOQUET        CLEAR     48  41  76 SW5       29.94S
WHEATON        CLEAR     46  45  93 SE5       29.93S
BRAINERD       CLEAR     43  42  97 CALM      29.94F
HIBBING        PTCLDY    41  38  89 CALM      29.92F
ALEXANDRIA     MOCLDY    51  47  86 S3        29.95S
SAINT CLOUD    PTCLDY    51  47  86 CALM      29.95F
MINNEAPOLIS    CLOUDY    56  47  71 E5        29.98R
$$

  *****  WEATHER ACROSS SOUTH DAKOTA  *****

CITY           SKY/WX    TMP DP  RH WIND       PRES   REMARKS
SIOUX FALLS    CLOUDY    58  50  75 S5        29.95S
BROOKINGS      NOT AVBL
WATERTOWN      CLEAR     52  49  89 S7        29.92S
HURON          MOCLDY    53  51  93 SE5       29.90S
SISSETON         N/A     49  48  97 SE5       29.90S
ABERDEEN       CLEAR     46  46 100 CALM      29.92R FOG
MITCHELL       PTCLDY    51  50  96 SE6       29.92R
PIERRE         CLEAR     50  48  93 CALM      29.89R
MOBRIDGE       MOCLDY    49  47  93 CALM      29.89S
RAPID CITY     CLEAR     55  45  68 W6        29.95S
$$

  *****  SOME WEATHER IN NEARBY STATES *****

CITY           SKY/WX    TMP DP  RH WIND       PRES   REMARKS
GLASGOW MT     PTCLDY    54  39  57 E10       29.89F
GREAT FALLS MT CLOUDY    56  43  61 W7        29.92S
CHEYENNE WY    CLEAR     57  37  47 W8        30.14F
SCOTTSBLUFF NE PTCLDY    58  47  66 NE3       30.00F
OMAHA NE       CLOUDY    62  53  72 SE6       29.97F
DES MOINES IA  CLOUDY    55  50  83 SE6       30.01F
DAVENPORT IA   CLEAR     46  42  86 SE3       30.05F
CHICAGO IL     CLEAR     52  46  80 CALM      30.06F
EAU CLAIRE WI  CLEAR     42  40  92 CALM      30.00S
LA CROSSE WI   PTCLDY    48  45  89 SE6       30.02F
$$

  *****  SOME NATIONAL WEATHER *****

CITY           SKY/WX    TMP DP  RH WIND       PRES   REMARKS
LA GUARDIA NY  CLEAR     61  51  70 CALM      30.02S
RALEIGH NC     CLOUDY    69  65  86 N3        29.96F
ATLANTA GA     CLEAR     70  67  90 NW8       29.97F
NEW ORLEANS LA CLOUDY    76  71  85 NW5       29.96S
OKLAHOMA CITY  MOCLDY    70  67  90 S5        30.00F
ALBUQUERQUE NM CLOUDY    62  53  72 SE3       30.21F
SALT LAKE CITY CLEAR     74  40  29 S12       29.95S
LOS ANGELES CA PTCLDY    78  58  49 CALM      29.73S
BOISE ID       CLOUDY    71  45  39 E6        29.82S
SEATTLE WA     CLOUDY    63  55  75 SE8       29.87F
$$

*** WEATHER ACROSS MANITOBA...SASKATCHEWAN AND ONTARIO ***
                ***ONTARIO***

CITY           SKY/WX    TMP DP  RH WIND       PRES   REMARKS
GERALDTON      FLURRIES  34  28  80 E2        30.02F
THUNDER BAY    CLOUDY    46  43  87 SE7       29.94F
SIOUX LOOKOUT  FLURRIES  34  34 100 E7        29.97S
TORONTO        CLEAR     48  43  81 W5        30.03F
BIG TROUT LK   CLOUDY    34  25  69 N6        30.05S
PICKLE LAKE    NOT AVBL
DRYDEN         LGT RAIN  37  37 100 NE18G24   29.93
KENORA         LGT RAIN  43  41  93 NE10G18   29.92F
$$
                *** MANITOBA***

CITY           SKY/WX    TMP DP  RH WIND       PRES   REMARKS
BRANDON        PTCLDY    45  43  93 E10       29.96R
DAUPHIN        CLOUDY    45  41  87 E9        30.02R
ISLAND LAKE    PTCLDY    32  28  86 N6        30.11R
PILOT MOUND      N/A     48  43  81 N8          N/A
THE PAS        CLOUDY    36  32  87 E6        30.12R
THOMPSON       PTCLDY    19  19 100 CALM      30.14S
WINNIPEG       MOCLDY    48  46  93 NE14      29.94R
LYNN LAKE      CLEAR     25  21  86 E2        30.15S
CHURCHILL      FLURRIES  34  23  64 NW17G28   30.09S WCI  23
GILLAM         CLOUDY    32  27  80 N8        30.13S WCI  25
$$
                ***SASKATCHEWAN***

CITY           SKY/WX    TMP DP  RH WIND       PRES   REMARKS
ESTEVAN        CLEAR     46  39  76 S5        29.93R
KINDERSLEY     CLEAR     54  41  62 S5        29.89S
LLOYDMINSTER   CLEAR     45  43  93 E6        29.90R
PRINCE ALBERT  CLOUDY    37  37 100 E9        30.03R FOG
REGINA         CLEAR     48  41  76 E9        29.92S
YORKTON        CLOUDY    46  43  87 N9        29.98R
N. BATTLEFORD  FOG       43  43 100 SE15G21   29.95R VSB 1
LA RONGE       CLOUDY    37  36  93 E10       30.10R
SASKATOON      CLOUDY    46  45  93 NE10G18   29.97S
SWIFT CURRENT  CLEAR     54  41  62 SE7       29.90S
$$
NOTE: THESE ARE AUTOMATED STATIONS WITH LIMITED QUALITY CONTROL
      "FAIR" INDICATES FEW OR NO CLOUDS BELOW 12,000 FEET WITH NO
      SIGNIFICANT WEATHER AND/OR OBSTRUCTIONS TO VISIBILITY.
      SKY/WX - SKY CONDITION AND SIGNIFICANT WEATHER.
      TMP - AIR TEMPERATURE.    DP   - DEWPOINT TEMPERATURE.
      RH  - RELATIVE HUMIDITY.  PRES - PRESSURE.
      HX  - HEAT INDEX.         WCI  - WIND CHILL INDEX.
$


USA.gov is the U.S. government's official web portal to all federal, state and local government web resources and services.